Regional Weather Roundup
Issued by NWS

Home | Current Version | Previous Version | Graphics & Text | Print | Product List | Glossary On
Versions: 1 2 3 4 5 6 7 8 9 10 11 12 13 14 15 16 17 18 19 20 21 22 23 24 25 26 27 28 29 30 31 32 33 34 35 36 37 38 39 40 41 42 43 44 45 46 47 48 49 50
000
ASUS45 KCYS 140510
RWRWY

WYOMING REGIONAL WEATHER ROUNDUP
NATIONAL WEATHER SERVICE CHEYENNE WY
1000 PM MST WED DEC 13 2017

NOTE:  "FAIR" INDICATES FEW OR NO CLOUDS BELOW 12,000 FEET
WITH NO SIGNIFICANT WEATHER AND/OR OBSTRUCTIONS TO VISIBILITY.

WYZ001-140600-
YELLOWSTONE NATIONAL PARK

CITY           SKY/WX    TMP DP  RH WIND       PRES   REMARKS
LK YELLOWSTONE   N/A     22  19  89 CALM      30.30R
W YELLOWSTONE  NOT AVBL

$$
WYZ002>013-054>058-071-098>099-140600-
NORTHERN WYOMING

CITY           SKY/WX    TMP DP  RH WIND       PRES   REMARKS
JACKSON        MOCLDY    19  18  93 N3          N/A  FOG
CODY           CLOUDY    31  27  85 CALM      30.29R
GREYBULL       CLOUDY    35  29  78 NW17      30.24R WCI  25
WORLAND        FAIR      33  29  85 N5        30.25R WCI  29
SHERIDAN       CLOUDY    38  25  59 NW16      30.22F WCI  29
BUFFALO        CLOUDY    37  20  50 NW24G32   30.19R WCI  26
GILLETTE       MOCLDY    34  20  56 NW18      30.17R WCI  23
HULETT         CLOUDY    34  23  64 NW9       30.15R WCI  26
NEWCASTLE      FAIR      32  21  64 NW16      30.12S WCI  21

$$
WYZ014>020-022>026-101>103-140600-
CENTRAL WYOMING

CITY           SKY/WX    TMP DP  RH WIND       PRES   REMARKS
BIG PINEY      CLOUDY    26  21  81 E5        30.20R WCI  20
PINEDALE       CLOUDY    21  19  93 E3        30.21R
DUBOIS         LGT SNOW  27  23  86 CALM      30.20F
LANDER         LGT SNOW  29  28  96 NW7       30.25R FOG     WCI  22
RIVERTON       CLOUDY    29  28  96 W10       30.25R WCI  20
CASPER         LGT SNOW  30  29  96 W3        30.20R FOG
DOUGLAS        CLOUDY    33  25  72 NW9       30.18R WCI  25

$$
WYZ021-027>030-104>119-140600-
SOUTHERN WYOMING

CITY           SKY/WX    TMP DP  RH WIND       PRES   REMARKS
EVANSTON       LGT SNOW  26  24  92 N14       30.21R FOG     WCI  14
FORT BRIDGER   FLURRIES  29  26  90 W12       30.20R WCI  19
ROCK SPRINGS   LGT SNOW  27  24  89 NE10      30.18R FOG     WCI  17
DIXON          FLURRIES  32  26  78 N9        30.15R WCI  24
RAWLINS        FOG       28  25  88 N13       30.17R VSB 1   WCI  17
SARATOGA       LGT SNOW  28  28 100 NW10G17   30.15R WCI  19
LARAMIE        LGT SNOW  25  25 100 N9        30.11R FOG     WCI  15
CHEYENNE       LGT SNOW  29  27  92 N14G23    30.13R FOG     WCI  18
TORRINGTON     CLOUDY    38  22  52 NW16G25   30.15R WCI  29
PINE BLUFFS    CLOUDY    34  21  60 MISG      30.15R

$$



USA.gov is the U.S. government's official web portal to all federal, state and local government web resources and services.